Flag for Montenegro Weather past 2 weeks in Podgorica, Montenegro

Now
43 °F

Sunny.


Feels Like: 43 °F
Forecast: 31 / 53 °F
Wind: 2 mph from Northwest

Location: Podgorica Titograd

Current Time: Dec 22, 2014 at 9:41:40 AM

Latest Report: Dec 22, 2014 at 9:00 AM


Visibility: 10 mi

Pressure: 30.45 "Hg

Humidity: 49%

Dew point: 25 °F

Location of PodgoricaLocation

Historic Weather in Podgorica — Graph

°F

Podgorica temperature yesterday

Maximum temperature yesterday: 57 °F (at 1:00 PM)
Minimum temperature yesterday: 43 °F (at 12:00 AM)
Average temperature yesterday: 49 °F

Past Weeks' High & Low Weather Summary

 TemperatureHumidityPressure
High61 °F (Dec 8, 1:30 PM)100% (Dec 7, 8:00 AM)30.48 "Hg (Dec 7, 8:00 AM)
Low34 °F (Dec 13, 5:30 AM)21% (Dec 21, 3:00 PM)29.74 "Hg (Dec 9, 2:00 AM)
Average47 °F75%30.08 "Hg
* Reported Dec 7 8:00 AM — Dec 22 8:30 AM, Podgorica, Weather by CustomWeather, © 2014

Note: Actual official high and low records may vary slightly from our data, if they occured in-between our weather recording intervals... More about our weather records

Advertising

Podgorica weather history for previous 24 hours

 ConditionsComfort  
Time TempWeatherWind HumidityBarometerVisibility
8:30 AM
Dec 22
39 °FPassing clouds.3 mph61%30.45 "HgN/A
8:00 AM36 °FSunny.6 mph65%30.45 "Hg10 mi
7:30 AM34 °FPassing clouds.3 mph70%30.45 "HgN/A
7:00 AM36 °FClear.1 mph60%30.45 "Hg10 mi
6:30 AM36 °FClear.3 mph65%30.42 "Hg10 mi
6:00 AM37 °FClear.No wind56%30.42 "Hg10 mi
5:30 AM39 °FClear.1 mph52%30.42 "Hg10 mi
4:30 AM41 °FPassing clouds.3 mph45%30.42 "HgN/A
4:00 AM41 °FClear.8 mph45%30.45 "Hg10 mi
3:30 AM39 °FClear.7 mph52%30.45 "Hg10 mi
3:00 AM41 °FPassing clouds.5 mph49%30.45 "HgN/A
2:30 AM43 °FClear.8 mph46%30.45 "Hg10 mi
2:00 AM43 °FClear.9 mph42%30.45 "Hg10 mi
1:30 AM41 °FClear.6 mph49%30.45 "Hg10 mi
1:00 AM43 °FClear.10 mph42%30.45 "Hg10 mi
12:30 AM45 °FPassing clouds.14 mph39%30.48 "HgN/A
12:00 AM43 °FClear.10 mph42%30.48 "Hg10 mi
11:30 PM
Dec 21
43 °FClear.9 mph42%30.48 "Hg10 mi
10:30 PM45 °FPassing clouds.13 mph39%30.45 "HgN/A
10:00 PM45 °FPassing clouds.16 mph39%30.45 "HgN/A
9:30 PM46 °FClear.13 mph37%30.45 "Hg10 mi
9:00 PM46 °FPassing clouds.9 mph37%30.45 "HgN/A
8:30 PM46 °FClear.9 mph37%30.45 "Hg10 mi
8:00 PM48 °FClear.15 mph32%30.42 "Hg10 mi
7:30 PM48 °FClear.12 mph32%30.42 "Hg10 mi
7:00 PM46 °FClear.9 mph34%30.42 "Hg10 mi
6:30 PM48 °FClear.13 mph32%30.39 "Hg10 mi
6:00 PM50 °FClear.15 mph30%30.39 "Hg10 mi
5:30 PM50 °FPassing clouds.16 mph30%30.36 "HgN/A
5:00 PM50 °FClear.20 mph28%30.33 "Hg10 mi
4:30 PM52 °FClear.22 mph22%30.30 "Hg10 mi
4:00 PM52 °FSunny.16 mph24%30.30 "Hg10 mi
3:30 PM54 °FSunny.21 mph22%30.30 "Hg10 mi
3:00 PM55 °FSunny.17 mph21%30.27 "Hg10 mi
2:30 PM55 °FPassing clouds.18 mph23%30.27 "HgN/A
2:00 PM55 °FPassing clouds.22 mph24%30.27 "HgN/A
1:30 PM55 °FPassing clouds.18 mph26%30.27 "HgN/A
1:00 PM57 °FPassing clouds.18 mph27%30.27 "HgN/A
12:30 PM55 °FPassing clouds.23 mph28%30.24 "HgN/A
12:00 PM55 °FPassing clouds.18 mph31%30.24 "HgN/A
11:30 AM54 °FScattered clouds.17 mph33%30.24 "HgN/A
11:00 AM54 °FScattered clouds.17 mph33%30.24 "HgN/A
10:30 AM54 °FScattered clouds.18 mph35%30.24 "HgN/A
10:00 AM54 °FBroken clouds.18 mph35%30.24 "HgN/A
9:30 AM52 °FBroken clouds.21 mph41%30.24 "HgN/A
9:00 AM52 °FBroken clouds.18 mph47%30.21 "HgN/A
Weather by CustomWeather, © 2014

See weather overviewHow to use our weather pages